Regional Weather Roundup
Issued by NWS

Home | Current Version | Previous Version | Text Only | Print | Product List | Glossary On
Versions: 1 2 3 4 5 6 7 8 9 10 11 12 13 14 15 16 17 18 19 20 21 22 23 24 25 26 27 28 29 30 31 32 33 34 35 36 37 38 39 40 41 42 43 44 45 46 47 48 49 50
000
ASCA44 KEWX 240320
RWRMX

LATIN AMERICA AND CARIBBEAN REGIONAL WEATHER ROUNDUP
NATIONAL WEATHER SERVICE AUSTIN/SAN ANTONIO TX
1000 PM CDT THU MAR 23 2017

NOTE: "FAIR" INDICATED FEW OR NO CLOUDS BELOW 12,000 FEET WITH NO
SIGNIFICANT WEATHER AND/OR OBSTRUCTIONS TO VISIBILITY.

BAJA CALIFORNIA

CITY           SKY/WX    TMP DP  RH WIND       PRES   REMARKS
LA PAZ         PTCLDY    70  43  37 N9        30.04R
MEXICALI       CLEAR     68  34  28 W10       30.05R
S.J. DEL CABO  MOCLDY    70  54  56 NW10      30.02R
TIJUANA        CLEAR     55  45  67 NW8       30.22R

NORTHWESTERN MEXICO

CITY           SKY/WX    TMP DP  RH WIND       PRES   REMARKS
CULIACAN       PTCLDY    73  59  60 W10       29.92R
DURANGO        CLOUDY    73  30  20 SW10      30.17R
GUAYMAS          N/A    N/A N/A N/A MISG        N/A
HERMOSILLO     CLEAR     72  37  28 W8        30.04R
CD. JUAREZ     PTCLDY    55  28  35 W14G25    29.93R
LOS MOCHIS     MOCLDY    66  52  59 NW17      29.99R

NORTHEASTERN MEXICO

CITY           SKY/WX    TMP DP  RH WIND       PRES   REMARKS
CHIHUAHUA      PTCLDY    72  10   9 SW17      29.95R
MONCLOVA         N/A    N/A N/A N/A MISG        N/A
MONTERREY      MOCLDY    73  61  64 E7        29.92R
REYNOSA        MOCLDY    72  63  73 E12G23    29.97R
SALTILLO       MOCLDY    64  54  68 CALM      30.10S
TORREON        MOCLDY    84  37  18 CALM      29.89R
CD. VICTORIA     N/A    N/A N/A N/A MISG        N/A

WESTERN MEXICO

CITY           SKY/WX    TMP DP  RH WIND       PRES   REMARKS
AGUASCALIENTES CLEAR     72  19  14 SW8       30.17R
COLIMA         PTCLDY    72  68  88 CALM      30.06R
DEL BAJIO      PTCLDY    73  43  33 SW6       30.21R
GUADALAJARA    PTCLDY    75  41  29 SW8       30.14R
MAZATLAN       PTCLDY    72  64  78 NW3       29.99R
P. VALLARTA    CLEAR     75  70  83 CALM        N/A
URUAPAN          N/A    N/A N/A N/A MISG        N/A
ZACATECAS      PTCLDY    70  19  14 W21       30.22R

CENTRAL MEXICO

CITY           SKY/WX    TMP DP  RH WIND       PRES   REMARKS
CUERNAVACA       N/A    N/A N/A N/A MISG        N/A
MEXICO CITY    CLEAR     68  30  24 E8        30.30R
MORELIA        CLEAR     70  48  46 SW6       30.19R
POZA RICA      CLEAR     73  68  83 E7        30.03R
QUERETARO        N/A    N/A N/A N/A MISG        N/A
S. LUIS POTOSI PTCLDY    64  45  48 CALM      30.18R
TAMPICO        PTCLDY    75  68  78 S18       30.02R
TOLUCA         PTCLDY    59  36  41 SW5       30.38R

SOUTHERN MEXICO

CITY           SKY/WX    TMP DP  RH WIND       PRES   REMARKS
ACAPULCO       CLEAR     81  73  78 W3        29.93R
B. DE HUATULCO   N/A    N/A N/A N/A MISG        N/A
P. ESCONDIDO     N/A    N/A N/A N/A MISG        N/A
VERACRUZ       CLEAR     75  68  78 E5        30.03R
ZIHUATANEJO    PTCLDY    79  68  69 E2        29.95R

YUCATAN PENINSULA

CITY           SKY/WX    TMP DP  RH WIND       PRES   REMARKS
CAMPECHE       CLEAR     79  63  57 N12       30.01R
CANCUN         PTCLDY    72  63  73 NE6       30.15R
CHETUMAL       PTCLDY    77  66  69 SE12      30.11R
CD. DEL CARMEN   N/A    N/A N/A N/A MISG        N/A
COZUMEL        PTCLDY    72  64  78 E7        30.13R
MERIDA         CLEAR     75  63  64 NE15      30.09R
MINATITLAN       N/A    N/A N/A N/A MISG        N/A
TAPACHULA      CLEAR     79  72  78 CALM      29.92R
TUX. GUTIERREZ PTCLDY    75  59  57 W12       30.01R
VILLAHERMOSA   CLEAR     75  68  78 NE7       30.03R

CENTRAL AMERICA

CITY           SKY/WX    TMP DP  RH WIND       PRES   REMARKS
BELIZE CITY    PTCLDY    75  66  73 E7        30.10R
MANAGUA        PTCLDY    82  59  44 E7        29.94S

CARIBBEAN

CITY           SKY/WX    TMP DP  RH WIND       PRES   REMARKS
ARUBA          PTCLDY    81  77  89 E7        29.94S
CURACAO        PTCLDY    81  75  83 E6        29.94S
KINGSTON       PTCLDY    81  68  65 S9        30.00R
NASSAU         LGT RAIN  75  55  50 NE12G23   30.23
SAN JUAN       MOCLDY    73  72  94 SW7       30.01F
SANTO DOMINGO  MOCLDY    75  70  83 CALM      30.00R
ST. CROIX      CLOUDY    79  73  83 E5        30.01
ST. MAARTEN    PTCLDY    79  75  89 SE12      30.00S
ST. THOMAS     MOCLDY    79  75  89 SE7       30.00

$$




USA.gov is the U.S. government's official web portal to all federal, state and local government web resources and services.